Volver al catálogo

CZ-6A DEB

ActivoSSO
NORAD 55528·DEBRIS·🇨🇳 China

Lanzado Nov 11, 2022 desde Taiyuan Satellite Launch Center

Loading…

Próximos Pases (próximas 24 horas)

TLE

ActualizadoSource: Space-Track

Época: Sep 14, 2026, 14:36 UTC

1 55528U 22151YA  26257.60885544  .00002456  00000-0  59185-3 0  9996
2 55528  98.6256 313.2822 0068411 339.7527  20.0957 14.52790187197015

Sigue CZ-6A DEB en tiempo real con AllMySat

Download on the App Store